Location: Arcueil
(48.7999°N, 2.3326°E)
Time: 06:51:57
(UTC+00:00)

DELTA 2 DEB (DPAF) - Visible Passes

Search period start: 24 September 2023 00:00
Search period end: 04 October 2023 00:00
Orbit: 615 x 620 km, 98.4° (Epoch: 23 September)

Date Brightness Start Highest point End Pass type
(mag) Time Alt. Az. Time Alt. Az. Time Alt. Az.
24 Sep 5.0 05:06:09 10° SSE 05:10:21 54° ENE 05:14:35 10° N visible
24 Sep 4.1 18:24:48 10° NNE 18:29:04 55° ESE 18:33:18 10° S visible
24 Sep 6.9 20:01:38 10° NNW 20:04:42 19° WNW 20:07:46 10° WSW visible
25 Sep 7.5 03:50:11 10° ENE 03:51:34 11° NE 03:52:57 10° NE visible
25 Sep 4.0 18:41:15 10° NNE 18:45:36 81° ESE 18:49:55 10° SSW visible
25 Sep 7.3 20:18:43 10° NNW 20:21:01 14° WNW 20:23:19 10° W visible
26 Sep 7.2 04:05:19 10° E 04:07:51 16° ENE 04:10:24 10° NNE visible
26 Sep 4.4 18:57:45 10° N 19:02:05 71° WNW 19:06:23 10° SSW visible
26 Sep 7.6 20:36:31 10° NW 20:37:17 10° NW 20:38:03 10° WNW visible
27 Sep 6.9 04:20:56 10° ESE 04:24:09 21° ENE 04:27:23 10° NNE visible
27 Sep 5.1 19:14:19 10° N 19:18:30 49° WNW 19:22:40 10° SW visible
28 Sep 6.3 04:36:48 10° ESE 04:40:28 28° ENE 04:44:10 10° N visible
28 Sep 5.8 19:30:56 10° N 19:34:52 35° WNW 19:38:47 10° SW visible
29 Sep 5.7 04:52:48 10° SE 04:56:48 39° ENE 05:00:50 10° N visible
29 Sep 4.5 18:11:16 10° NNE 18:15:21 39° E 18:19:24 10° SSE visible
29 Sep 6.4 19:47:37 10° N 19:51:11 25° WNW 19:54:43 10° WSW visible
30 Sep 4.9 05:08:57 10° SSE 05:13:09 56° ENE 05:17:23 10° N visible
30 Sep 4.1 18:27:32 10° NNE 18:31:49 57° ESE 18:36:04 10° S visible
30 Sep 6.8 20:04:24 10° NNW 20:07:26 19° WNW 20:10:28 10° WSW visible
01 Oct 7.4 03:52:45 10° ENE 03:54:15 12° NE 03:55:45 10° NE visible
01 Oct 4.0 18:43:53 10° NNE 18:48:14 82° ESE 18:52:33 10° SSW visible
01 Oct 7.2 20:21:24 10° NNW 20:23:38 14° WNW 20:25:53 10° W visible
02 Oct 7.1 04:07:51 10° E 04:10:26 16° ENE 04:13:01 10° NNE visible
02 Oct 4.4 19:00:17 10° N 19:04:35 70° WNW 19:08:53 10° SSW visible
02 Oct 7.5 20:39:12 10° NW 20:39:47 10° NW 20:40:21 10° WNW visible
03 Oct 6.8 04:23:22 10° ESE 04:26:37 21° ENE 04:29:52 10° NNE visible
03 Oct 5.1 19:16:43 10° N 19:20:54 48° WNW 19:25:03 10° SW visible
